Olathe, KS

12:16 AM CST on February 27, 2017 (GMT -0600)
Johnson County Executive

Weather History for KOJC - February, 2012

Change the Weather History Date:

Monday, February 27, 2012

  Actual Average Record
Temperature  
Mean Temperature 39 °F 39 °F  
Max Temperature 48 °F 49 °F 73 °F (1976)
Min Temperature 30 °F 29 °F 1 °F (1962)
Degree Days  
Heating Degree Days 26 26  
Month to date heating degree days 706 819  
Since 1 July heating degree days 3328 3867  
Cooling Degree Days 0 0  
Month to date cooling degree days 0 0  
Year to date cooling degree days 0 0  
Moisture  
Dew Point 18 °F    
Average Humidity 45    
Maximum Humidity 64    
Minimum Humidity 26    
Precipitation  
Precipitation 0.00 in 0.06 in 1.21 in (2011)
Month to date precipitation 0.58 1.51  
Year to date precipitation 0.59 2.63  
Sea Level Pressure  
Sea Level Pressure 30.39 in    
Wind  
Wind Speed 9 mph (NE)    
Max Wind Speed 21 mph    
Max Gust Speed 25 mph    
Visibility 10 miles    
Events      
T = Trace of Precipitation, MM = Missing Value Source: NWS Daily Summary

Daily Weather History Graph

Daily Weather History Graph

Search for Another Location

Airport or City:

Trip Planner

Search our weather history database for the weather conditions in past years. The results will help you decide how hot, cold, wet, or windy it might be!

Date:

Astronomy

Feb. 27, 2012 Rise Set
Actual Time 6:54 AM CST 6:09 PM CST
Civil Twilight 6:28 AM CST 6:35 PM CST
Nautical Twilight 5:57 AM CST 7:06 PM CST
Astronomical Twilight 5:26 AM CST 7:37 PM CST
Moon 9:28 AM CST 11:59 PM CST
Length of Visible Light 12h 07m
Length of Day
11h 14m
Waxing Crescent, 29% of the Moon is Illuminated
Feb 27
Waxing Crescent
Feb 29
First Quarter
Mar 8
Full
Mar 14
Last Quarter
Mar 22
New

Hourly Weather History & Observations

Time (CST) Temp. Windchill Dew Point Humidity Pressure Visibility Wind Dir Wind Speed Gust Speed Precip Events Conditions
12:53 AM 41.0 °F 38.0 °F 19.9 °F 43% 30.22 in 10.0 mi NNW 4.6 mph - N/A   Clear
1:53 AM 41.0 °F 38.0 °F 21.0 °F 45% 30.26 in 10.0 mi NNW 4.6 mph - N/A   Clear
2:53 AM 39.9 °F 33.4 °F 23.0 °F 51% 30.30 in 10.0 mi North 10.4 mph - N/A   Clear
3:53 AM 36.0 °F 29.0 °F 24.1 °F 62% 30.34 in 10.0 mi North 9.2 mph - N/A   Clear
4:53 AM 34.0 °F 23.8 °F 21.9 °F 61% 30.37 in 10.0 mi North 16.1 mph - N/A   Clear
5:53 AM 32.0 °F 22.1 °F 19.0 °F 59% 30.40 in 10.0 mi North 13.8 mph - N/A   Clear
6:53 AM 30.0 °F 21.7 °F 19.0 °F 64% 30.43 in 10.0 mi North 9.2 mph - N/A   Clear
7:53 AM 30.9 °F 19.1 °F 14.0 °F 50% 30.45 in 10.0 mi North 18.4 mph - N/A   Clear
8:53 AM 32.0 °F 21.6 °F 14.0 °F 48% 30.48 in 10.0 mi North 15.0 mph - N/A   Clear
9:53 AM 34.0 °F 25.5 °F 12.9 °F 42% 30.49 in 10.0 mi NNE 11.5 mph - N/A   Clear
10:53 AM 35.1 °F 26.9 °F 14.0 °F 42% 30.49 in 10.0 mi NNE 11.5 mph - N/A   Clear
11:53 AM 39.9 °F 34.5 °F 14.0 °F 35% 30.48 in 10.0 mi NNE 8.1 mph - N/A   Clear
12:53 PM 42.1 °F 37.7 °F 14.0 °F 32% 30.46 in 10.0 mi NE 6.9 mph - N/A   Clear
1:53 PM 44.1 °F 40.1 °F 15.1 °F 31% 30.43 in 10.0 mi ENE 6.9 mph - N/A   Clear
2:53 PM 46.0 °F 43.9 °F 15.1 °F 29% 30.42 in 10.0 mi East 4.6 mph - N/A   Clear
3:53 PM 48.0 °F - 16.0 °F 28% 30.41 in 10.0 mi East 6.9 mph - N/A   Clear
4:53 PM 46.9 °F - 15.1 °F 28% 30.39 in 10.0 mi East 5.8 mph - N/A   Clear
5:53 PM 43.0 °F 38.2 °F 18.0 °F 37% 30.39 in 10.0 mi ESE 8.1 mph - N/A   Clear
6:53 PM 41.0 °F 37.1 °F 18.0 °F 40% 30.38 in 10.0 mi East 5.8 mph - N/A   Partly Cloudy
7:53 PM 39.0 °F 34.0 °F 19.0 °F 45% 30.37 in 10.0 mi ESE 6.9 mph - N/A   Overcast
8:53 PM 37.0 °F 31.0 °F 19.0 °F 48% 30.35 in 10.0 mi ESE 8.1 mph - N/A   Clear
9:53 PM 37.9 °F 33.5 °F 18.0 °F 45% 30.36 in 10.0 mi ESE 5.8 mph - N/A   Clear
10:53 PM 37.9 °F 32.1 °F 18.0 °F 45% 30.34 in 10.0 mi ESE 8.1 mph - N/A   Clear
11:53 PM 39.0 °F 32.3 °F 18.0 °F 43% 30.31 in 10.0 mi ESE 10.4 mph - N/A   Overcast